This is the latest recevied weather packets stored in our database for station/object KC5DAQ-25. If no packets are shown the sender has not sent any weather packets the latest 10 day(s).
| Time | Temp. | Humidity | Pressure | Rain* | Wind** | Luminosity | Snow |
|---|---|---|---|---|---|---|---|
| 1777637338 | 16.67° C | 89% | 1003.8 hPa | 8.13 mm | - | 0 W/m² | - |
| 1777637275 | 16.67° C | 89% | 1003.9 hPa | 8.38 mm | - | 0 W/m² | - |
| 1777637210 | 16.67° C | 89% | 1004 hPa | 8.13 mm | - | 0 W/m² | - |
| 1777637137 | 16.67° C | 89% | 1004 hPa | 8.13 mm | - | 0 W/m² | - |
| 1777637074 | 16.67° C | 89% | 1004 hPa | 8.13 mm | - | 0 W/m² | - |
| 1777637014 | 16.67° C | 89% | 1003.9 hPa | 8.13 mm | - | 0 W/m² | - |
| 1777636954 | 16.67° C | 89% | 1003.8 hPa | 8.13 mm | - | 0 W/m² | - |
| 1777636892 | 16.67° C | 89% | 1003.6 hPa | 7.87 mm | - | 0 W/m² | - |
| 1777636831 | 16.67° C | 89% | 1003.5 hPa | 7.87 mm | - | 0 W/m² | - |
| 1777636772 | 16.67° C | 89% | 1003.4 hPa | 7.87 mm | - | 0 W/m² | - |
| 1777636710 | 16.67° C | 89% | 1003.3 hPa | 7.87 mm | - | 0 W/m² | - |
| 1777636650 | 16.67° C | 89% | 1003.4 hPa | 7.62 mm | - | 0 W/m² | - |
| 1777636592 | 16.67° C | 89% | 1003.4 hPa | 7.62 mm | - | 0 W/m² | - |
| 1777636531 | 16.67° C | 89% | 1003.5 hPa | 7.62 mm | - | 0 W/m² | - |
| 1777636471 | 16.67° C | 89% | 1003.7 hPa | 7.62 mm | - | 0 W/m² | - |
| 1777636410 | 16.67° C | 89% | 1003.7 hPa | 7.87 mm | - | 0 W/m² | - |
| 1777636350 | 16.67° C | 89% | 1003.9 hPa | 7.87 mm | - | 0 W/m² | - |
| 1777636298 | 16.67° C | 89% | 1003.9 hPa | 7.62 mm | - | 0 W/m² | - |
| 1777636230 | 16.67° C | 89% | 1004 hPa | 8.13 mm | - | 0 W/m² | - |
| 1777636171 | 16.67° C | 89% | 1003.9 hPa | 8.13 mm | - | 0 W/m² | - |
| 1777636110 | 16.67° C | 89% | 1004 hPa | 7.87 mm | - | 0 W/m² | - |
| 1777636050 | 16.67° C | 89% | 1003.9 hPa | 7.87 mm | - | 0 W/m² | - |
| 1777635990 | 16.67° C | 89% | 1003.9 hPa | 8.13 mm | - | 0 W/m² | - |
| 1777635930 | 16.67° C | 89% | 1004 hPa | 7.87 mm | - | 0 W/m² | - |
| 1777635870 | 16.67° C | 89% | 1003.9 hPa | 7.87 mm | - | 0 W/m² | - |
* Rain latest hour (hover to see other rain measurements)
** Current wind speed in m/s (hover to see current wind gust speed)